User: anonymous   Login
Location: Unspecified
(0.0000°N, 0.0000°E)
Time: 01:11:06
(UTC+00:00)
Language:

USA 274 DEB - Orbit

View from above orbital plane
View from above orbital plane
View from above satellite
View from above satellite

Ground track
Ground track

The orbit data is extracted from the following two-line orbital elements,

1 42065U 17011B   18343.77935991 0.00000000  00000-0  00000-0 0    09
2 42065  63.4388 301.7061 0074000 173.7840 186.2160 13.40773948    00
Epoch (UTC): 09 December 2018 18:42:16
Eccentricity: 0.0074000
inclination: 63.4388°
perigee height: 1051 km
apogee height: 1162 km
right ascension of ascending node: 301.7061°
argument of perigee: 173.7840°
revolutions per day: 13.40773948
mean anomaly at epoch: 186.2160°
orbit number at epoch: 0

The dashed part of the orbit path shows where the satellite is in the earth's shadow,  

DLR